Showing default

OKEAN 1, 19274

Orbit data source: Space-Track

OKEAN 1, 19274 is a Commonwealth of Independent States-origin payload satellite in LEO that was launched on Tue, 05 Jul 1988 UTC via a TSIKLON-3 launch vehicle from the Plesetsk Missile And Space Complex (PKMTR). Payload-class satellites include a variety of spacecraft equipped with specific instruments for various scientific and technological missions. These include communications satellites like Starlink; space stations such as the ISS; scientific satellites like the Hubble; Earth observation satellites from companies like Planet Labs, Umbra, and HawkEye 360; GPS; miniature CubeSats for education and research; and military/defense satellites.

Loading next visibility...
Identifier
19274, 1988-056A
Orbit
LEO
Country
Flag of CISCIS
Related business
Manufacturer
Yuzhnoe
Mission
Defense Imaging
Bus & Motor
OKEAN, Unknown motor
Mass
1,944 kg wet, 1,944 kg dry
Launch date (UTC)
1988-07-05 (38 years ago)
Launch vehicle
TSIKLON-3
Launch site
Plesetsk Missile And Space Complex (PKMTR)
Object type
Payload
Rocket body
Debris
Shape & HBR
Cone + 2 Pan, 10.8 m
Radar Cross Section
2.079 m², Large (>1 m²)

Expand to show TLE details & history
Last TLE update: 3 days ago

TLE from 3 days ago
0 OKEAN 1
1 19274U 88056A   26170.93116518  .00007274  00000-0  22282-3 0  9999
2 19274  82.4688 158.9335 0013065 161.0399 199.1333 15.33536020 50742
Epoch: 2026-06-19T22:20Z
TLE epoch observation values (Epoch: 2026-06-19T22:20:52.671Z)
Latitude
0.00003°
Longitude
-84.43902°
Altitude
476.828 km
Speed
7.623 km/s
True Right ascension
10h 35m 44s
True Declination
0° 00' 00"
Sunlit
Object was in daylight at epoch
Visualization orbit readout
Latitude
Unknown
Longitude
Unknown
Altitude
Unknown
Speed
Unknown
Apparent Right ascension
Unknown
Apparent Declination
Unknown
Sunlit
N/A
Visualization observer readout
Local Sidereal Time
00:54:27
Azimuth
Unknown
Elevation
Unknown
Doppler factor
Unknown
Orbital elements
Apogee altitude
471.163 km
Perigee altitude
453.289 km
Semi-major axis
6,840.363 km
Eccentricity
0.00131
Inclination
82.4688°
RAAN
158.9335°
Arg. of periapsis
161.0399°
True anomaly
199.0843°
Mean anomaly
199.1333°
Eccentric anomaly
199.10879°
Mean motion
3.83641 °/min
Orbital period
93.84 mins
BSTAR
0.00022282
Loading maneuver chart data...
Computing Atmospheric mass density...
Loading historical data...
Loading historical data...
Loading historical data...
Loading historical data...
Loading historical data...
Loading historical data...
Loading historical data...
Other satellites on launch #56 in the year 1988 (1988-07-05 UTC)

Documentation

Showing up to 5 results
|